CAPE
0 0 0 0 0 0 0 0 0 0 0 0 0 0 0 0 0 0 0 0 0 0 0 17 62 33 3 0 4 8 166 620 1065 882 724 405 507 260 132 66 38 50 6 2
0 0 0 0 0 0 0 0 0 0 0 0 0 0 0 0 0 0 0 0 0 3 6 19 100 158 99 27 121 422 765 763 1001 853 682 543 318 292 325 79 84 81 1 0
0 0 0 0 0 0 0 0 0 0 0 0 0 0 0 0 0 0 0 0 6 16 18 26 198 353 430 493 612 760 676 778 945 829 857 509 20 2 3 2 10 55 0 0
0 0 0 0 0 0 0 0 0 0 0 0 0 0 0 0 0 0 0 1 12 2 2 19 15 60 147 548 680 995 874 774 1137 882 896 424 91 5 3 0 1 0 2 0
0 0 0 0 0 0 0 0 0 0 0 0 0 0 0 0 0 0 0 2 6 2 3 39 5 6 41 89 237 634 876 745 1126 1002 764 523 34 2 5 1 1 2 3 1
0 0 0 0 0 0 0 0 0 0 0 0 0 0 0 0 0 0 0 1 4 7 3 15 13 3 41 36 94 260 285 172 392 508 465 164 6 1 2 2 2 4 8 7
0 0 0 0 0 0 0 0 0 0 0 0 0 0 0 0 0 0 0 2 3 2 5 11 20 25 66 21 38 25 42 28 6 1 10 26 9 4 3 6 2 2 3 6
0 0 0 0 0 0 0 0 0 12 0 0 0 0 0 0 0 0 0 1 0 0 2 4 8 77 63 5 5 2 21 16 11 4 5 5 4 2 6 2 4 4 4 3
0 0 0 0 0 0 0 0 0 0 0 0 0 0 0 0 0 0 0 2 3 0 1 3 3 5 14 11 5 0 5 7 7 7 5 3 3 4 3 5 4 3 2 3
0 0 0 0 0 0 0 0 0 0 0 0 0 0 0 0 0 0 0 2 3 4 0 1 2 4 6 7 7 6 7 10 10 7 7 6 5 5 4 2 2 1 1 0
0 0 0 0 0 0 0 0 0 0 0 0 0 0 0 0 0 0 0 0 2 1 5 3 3 3 3 3 3 4 5 5 5 7 6 7 10 8 3 3 1 3 2 0
0 0 0 0 0 0 0 0 0 0 0 0 0 0 0 0 0 0 0 0 1 1 1 1 1 1 0 0 1 2 2 5 4 5 4 4 4 4 7 6 7 5 5 1
0 0 0 0 0 0 0 0 0 0 0 0 0 0 0 0 0 0 0 0 0 3 0 1 0 0 0 0 0 0 2 2 1 1 2 4 2 1 2 4 2 6 6 4
0 0 0 0 0 0 0 0 0 0 0 0 0 0 0 0 0 0 0 0 0 1 5 2 0 0 0 0 0 0 0 0 0 1 0 0 0 0 0 0 0 0 0 0
0 0 0 0 0 0 0 0 0 0 0 0 0 0 0 0 0 0 0 0 0 0 6 2 0 0 0 0 0 0 0 0 0 0 0 0 0 0 0 0 0 0 0 0
0 0 0 0 0 0 0 0 0 0 0 0 0 0 0 0 0 0 0 0 0 0 0 5 2 0 1 2 0 0 0 0 0 0 0 0 0 0 0 0 0 0 0 0
0 0 0 0 0 0 0 0 0 0 0 0 0 0 0 0 0 0 0 0 0 0 0 0 0 0 0 0 0 0 0 0 0 1 0 0 1 0 0 0 0 0 0 0
0 0 0 0 0 0 0 0 0 0 0 0 0 0 0 0 0 0 0 0 0 0 0 0 0 0 0 0 0 0 0 0 0 0 0 0 0 0 0 0 0 0 0 0
0 0 0 0 0 0 0 0 0 0 0 0 0 0 0 0 0 0 0 0 0 0 0 0 0 0 0 0 0 0 0 0 0 0 0 0 0 0 0 0 0 0 0 0
0 0 0 0 0 0 0 0 0 0 0 0 0 0 0 0 0 0 0 0 0 0 0 0 0 0 0 0 0 0 0 0 0 0 0 0 0 0 0 0 0 0 0 0
0 0 0 0 0 0 0 0 0 0 0 0 0 0 0 0 0 0 0 0 0 0 0 0 0 0 0 0 0 0 0 0 0 0 0 0 0 0 0 0 0 0 0 0
0 0 0 0 0 0 0 0 0 0 0 0 0 0 0 0 0 0 0 0 0 0 0 0 0 0 0 0 0 0 0 0 0 0 0 0 0 0 0 0 0 0 0 0
0 0 0 0 0 0 0 0 0 0 0 0 0 0 0 0 0 0 0 0 0 0 0 0 0 0 0 0 0 0 0 0 0 0 0 0 0 0 0 0 0 0 0 0
0 0 0 0 0 0 0 0 0 0 0 0 0 0 0 0 0 0 0 0 0 0 0 0 0 0 0 0 0 0 0 0 0 0 0 0 0 0 0 0 0 0 0 0
0 0 0 0 0 0 0 0 0 0 0 0 0 0 0 0 0 0 0 0 0 0 0 0 0 0 0 0 0 0 0 0 0 0 0 0 0 0 0 0 0 0 0 0
0 0 0 0 0 0 0 0 0 0 0 0 0 0 0 0 0 0 0 0 0 0 0 0 0 0 0 0 0 0 0 0 0 0 0 0 0 0 0 0 0 0 0 0
CIN
-0 -0 -0 -0 -0 -0 -0 -0 -0 -0 -0 -0 -0 -0 -0 -0 -0 -0 -0 -0 -0 -0 -0 -38 -95 -151 -0 -0 -259 -223 -165 -84 -17 -26 -18 -32 -0 -0 -0 -4 -4 -28 -82 -62
-0 -0 -0 -0 -0 -0 -0 -0 -0 -0 -0 -0 -0 -0 -0 -0 -0 -0 -0 -0 -0 -0 -0 -0 -61 -78 -114 -183 -134 -57 -39 -38 -20 -20 -16 -5 -0 -0 -0 -16 -0 -4 -32 -0
-0 -0 -0 -0 -0 -0 -0 -0 -0 -0 -0 -0 -0 -0 -0 -0 -0 -0 -0 -0 -0 -0 -0 -5 -1 -1 -3 -9 -15 -19 -43 -33 -25 -20 -2 -1 -170 -0 -0 -10 -7 -7 -0 -0
-0 -0 -0 -0 -0 -0 -0 -0 -0 -0 -0 -0 -0 -0 -0 -0 -0 -0 -0 -0 -0 -0 -0 -9 -58 -64 -64 -33 -28 -12 -28 -59 -13 -16 -0 -4 -14 -0 -0 -0 -0 -0 -0 -0
-0 -0 -0 -0 -0 -0 -0 -0 -0 -0 -0 -0 -0 -0 -0 -0 -0 -0 -0 -0 -0 -0 -0 -14 -0 -85 -102 -116 -103 -44 -40 -59 -3 -3 -0 -0 -41 -0 -0 -0 -0 -0 -0 -0
-0 -0 -0 -0 -0 -0 -0 -0 -0 -0 -0 -0 -0 -0 -0 -0 -0 -0 -0 -0 -0 -0 -0 -16 -45 -1 -99 -141 -123 -100 -103 -114 -70 -40 -7 -75 -69 -0 -0 -0 -0 -0 -0 -0
-0 -0 -0 -0 -0 -0 -0 -0 -0 -0 -0 -0 -0 -0 -0 -0 -0 -0 -0 -0 -0 -0 -0 -0 -27 -56 -58 -123 -145 -150 -131 -139 -100 -5 -122 -90 -102 -0 -0 -0 -0 -0 -0 -0
-0 -0 -0 -0 -0 -0 -0 -0 -0 -0 -0 -0 -0 -0 -0 -0 -0 -0 -0 -0 -0 -0 -0 -0 -0 -11 -37 -63 -0 -20 -121 -140 -160 -0 -0 -0 -0 -0 -0 -0 -0 -0 -0 -0
-0 -0 -0 -0 -0 -0 -0 -0 -0 -0 -0 -0 -0 -0 -0 -0 -0 -0 -0 -0 -0 -0 -0 -0 -0 -1 -14 -6 -0 -0 -0 -0 -0 -0 -0 -0 -0 -0 -0 -0 -0 -0 -0 -0
-0 -0 -0 -0 -0 -0 -0 -0 -0 -0 -0 -0 -0 -0 -0 -0 -0 -0 -0 -0 -0 -0 -0 -0 -0 -0 -0 -0 -0 -0 -0 -0 -0 -0 -0 -0 -0 -0 -0 -0 -0 -0 -0 -0
-0 -0 -0 -0 -0 -0 -0 -0 -0 -0 -0 -0 -0 -0 -0 -0 -0 -0 -0 -0 -0 -0 -0 -0 -0 -0 -0 -0 -0 -0 -0 -0 -0 -0 -0 -0 -0 -0 -0 -0 -0 -0 -0 -0
-0 -0 -0 -0 -0 -0 -0 -0 -0 -0 -0 -0 -0 -0 -0 -0 -0 -0 -0 -0 -0 -0 -0 -0 -0 -0 -0 -0 -0 -0 -0 -0 -0 -0 -0 -0 -0 -0 -0 -0 -0 -0 -0 -0
-0 -0 -0 -0 -0 -0 -0 -0 -0 -0 -0 -0 -0 -0 -0 -0 -0 -0 -0 -0 -0 -0 -0 -0 -0 -0 -0 -0 -0 -0 -0 -0 -0 -0 -0 -0 -0 -0 -0 -0 -0 -0 -0 -0
-0 -0 -0 -0 -0 -0 -0 -0 -0 -0 -0 -0 -0 -0 -0 -0 -0 -0 -0 -0 -0 -0 -0 -0 -0 -0 -0 -0 -0 -0 -0 -0 -0 -0 -0 -0 -0 -0 -0 -0 -0 -0 -0 -0
-0 -0 -0 -0 -0 -0 -0 -0 -0 -0 -0 -0 -0 -0 -0 -0 -0 -0 -0 -0 -0 -0 -0 -0 -0 -0 -0 -0 -0 -0 -0 -0 -0 -0 -0 -0 -0 -0 -0 -0 -0 -0 -0 -0
-0 -0 -0 -0 -0 -0 -0 -0 -0 -0 -0 -0 -0 -0 -0 -0 -0 -0 -0 -0 -0 -0 -0 -0 -0 -0 -0 -0 -0 -0 -0 -0 -0 -0 -0 -0 -0 -0 -0 -0 -0 -0 -0 -0
-0 -0 -0 -0 -0 -0 -0 -0 -0 -0 -0 -0 -0 -0 -0 -0 -0 -0 -0 -0 -0 -0 -0 -0 -0 -0 -0 -0 -0 -0 -0 -0 -0 -0 -0 -0 -0 -0 -0 -0 -0 -0 -0 -0
-0 -0 -0 -0 -0 -0 -0 -0 -0 -0 -0 -0 -0 -0 -0 -0 -0 -0 -0 -0 -0 -0 -0 -0 -0 -0 -0 -0 -0 -0 -0 -0 -0 -0 -0 -0 -0 -0 -0 -0 -0 -0 -0 -0
-0 -0 -0 -0 -0 -0 -0 -0 -0 -0 -0 -0 -0 -0 -0 -0 -0 -0 -0 -0 -0 -0 -0 -0 -0 -0 -0 -0 -0 -0 -0 -0 -0 -0 -0 -0 -0 -0 -0 -0 -0 -0 -0 -0
-0 -0 -0 -0 -0 -0 -0 -0 -0 -0 -0 -0 -0 -0 -0 -0 -0 -0 -0 -0 -0 -0 -0 -0 -0 -0 -0 -0 -0 -0 -0 -0 -0 -0 -0 -0 -0 -0 -0 -0 -0 -0 -0 -0
-0 -0 -0 -0 -0 -0 -0 -0 -0 -0 -0 -0 -0 -0 -0 -0 -0 -0 -0 -0 -0 -0 -0 -0 -0 -0 -0 -0 -0 -0 -0 -0 -0 -0 -0 -0 -0 -0 -0 -0 -0 -0 -0 -0
-0 -0 -0 -0 -0 -0 -0 -0 -0 -0 -0 -0 -0 -0 -0 -0 -0 -0 -0 -0 -0 -0 -0 -0 -0 -0 -0 -0 -0 -0 -0 -0 -0 -0 -0 -0 -0 -0 -0 -0 -0 -0 -0 -0
-0 -0 -0 -0 -0 -0 -0 -0 -0 -0 -0 -0 -0 -0 -0 -0 -0 -0 -0 -0 -0 -0 -0 -0 -0 -0 -0 -0 -0 -0 -0 -0 -0 -0 -0 -0 -0 -0 -0 -0 -0 -0 -0 -0
-0 -0 -0 -0 -0 -0 -0 -0 -0 -0 -0 -0 -0 -0 -0 -0 -0 -0 -0 -0 -0 -0 -0 -0 -0 -0 -0 -0 -0 -0 -0 -0 -0 -0 -0 -0 -0 -0 -0 -0 -0 -0 -0 -0
-0 -0 -0 -0 -0 -0 -0 -0 -0 -0 -0 -0 -0 -0 -0 -0 -0 -0 -0 -0 -0 -0 -0 -0 -0 -0 -0 -0 -0 -0 -0 -0 -0 -0 -0 -0 -0 -0 -0 -0 -0 -0 -0 -0
-0 -0 -0 -0 -0 -0 -0 -0 -0 -0 -0 -0 -0 -0 -0 -0 -0 -0 -0 -0 -0 -0 -0 -0 -0 -0 -0 -0 -0 -0 -0 -0 -0 -0 -0 -0 -0 -0 -0 -0 -0 -0 -0 -0
Wind_Speed
5 8 11 12 11 8 7 8 10 8 4 8 12 12 10 7 9 9 8 10 13 15 17 15 13 13 11 10 12 12 11 13 9 7 7 5 6 5 4 7 12 12 10 10
6 14 13 4 5 9 9 11 12 8 4 7 10 14 11 6 7 3 7 11 13 16 16 15 12 8 7 8 9 9 9 14 9 8 6 4 5 4 7 5 9 11 12 11
15 2 3 10 9 12 12 13 10 10 3 11 11 15 6 4 5 3 5 7 10 12 14 14 11 6 4 2 2 5 8 11 10 11 6 4 6 4 2 5 6 9 10 10
12 13 11 9 12 13 12 7 9 7 6 6 2 4 8 7 7 3 5 7 8 12 13 11 8 7 6 6 6 8 11 11 10 11 8 8 4 3 2 5 6 6 9 9
4 9 9 12 15 13 4 4 4 5 9 8 8 7 6 5 8 3 3 5 8 10 11 11 9 8 9 9 8 7 8 6 6 10 8 5 6 4 3 7 9 7 7 8
10 1 5 3 4 9 11 5 2 3 4 7 3 6 5 6 3 2 1 3 6 8 9 9 8 9 10 10 9 9 10 8 6 5 6 6 8 8 6 8 7 6 6 6
13 14 5 7 8 7 9 6 3 5 5 2 4 5 7 5 5 3 2 4 6 7 8 9 8 9 10 10 10 9 9 9 8 8 7 8 7 7 6 6 6 7 4 4
14 8 18 14 13 9 14 10 5 5 4 1 2 7 1 4 6 5 3 2 5 6 6 8 10 7 8 9 9 10 10 10 9 8 8 8 8 6 7 7 6 6 5 5
9 7 6 6 6 10 8 10 2 1 1 4 6 6 5 6 8 7 7 6 6 4 5 5 7 8 8 8 8 10 10 10 9 8 7 8 7 7 8 9 9 7 8 7
7 5 6 5 5 4 7 12 6 5 4 6 6 5 4 12 14 11 10 10 7 6 4 3 4 5 6 7 8 8 9 9 9 9 7 6 9 9 10 8 10 11 9 10
11 6 7 8 12 15 8 7 4 4 5 4 3 3 0 13 13 14 12 10 9 6 6 5 3 3 4 6 7 7 8 8 8 9 10 9 8 9 10 8 9 10 9 9
20 10 9 13 2 7 14 13 16 7 7 4 5 1 5 10 12 12 12 11 9 5 5 5 4 4 5 5 6 6 6 8 8 7 11 12 11 10 10 8 8 10 10 11
14 11 9 6 6 5 11 15 15 7 2 9 5 4 7 9 11 12 14 13 11 9 7 5 5 5 6 6 7 7 7 7 7 8 10 11 11 10 10 9 7 7 9 11
17 8 19 12 3 10 12 20 20 17 10 7 11 5 13 14 15 14 15 14 13 10 10 8 7 6 7 7 7 7 8 8 8 10 10 11 10 10 10 10 9 9 10 10
14 14 16 8 5 9 8 18 22 22 20 11 2 15 12 19 19 19 17 16 15 12 12 11 10 8 8 8 7 7 6 6 8 10 10 9 9 9 8 9 10 10 11 11
5 8 13 15 8 9 5 11 20 23 22 20 15 14 5 11 16 18 18 18 18 16 15 14 12 12 12 12 10 8 8 7 9 10 10 9 9 10 10 11 11 12 12 12
11 8 9 15 12 6 12 19 19 14 16 22 17 15 8 11 18 22 21 21 21 21 18 15 14 13 12 11 11 11 10 10 11 12 11 11 10 10 11 12 12 12 12 12
14 15 5 6 11 12 5 5 21 25 18 23 16 12 15 14 18 19 22 24 23 22 21 18 14 12 10 10 11 12 12 12 13 13 12 11 11 11 11 11 11 11 11 11
20 15 10 8 12 5 6 7 12 17 17 23 25 18 13 7 11 11 20 22 24 24 21 20 17 14 12 11 11 12 12 12 13 14 14 13 13 12 12 11 11 9 9 8
13 14 14 6 10 13 9 11 11 8 12 12 25 22 18 14 11 10 21 22 21 21 19 19 20 17 15 14 13 13 13 13 12 12 12 11 12 11 11 11 10 9 8 9
9 10 17 16 10 6 3 11 15 12 5 5 19 19 21 19 11 5 21 20 21 20 22 20 20 18 19 17 16 15 14 14 13 12 12 11 11 11 11 11 9 9 9 9
15 13 12 17 15 14 9 10 13 7 2 5 11 17 20 13 10 11 18 21 22 23 22 22 19 18 18 17 17 16 16 14 13 13 13 12 12 9 9 11 10 10 10 10
10 10 12 13 12 3 21 5 7 1 2 5 11 13 17 15 12 14 16 20 21 22 20 19 18 18 17 18 17 18 16 16 16 15 14 12 11 10 9 9 9 8 8 7
17 5 7 7 13 8 14 7 3 4 2 3 7 14 16 17 14 13 16 17 18 18 19 18 18 19 18 18 18 16 17 16 16 15 14 13 13 13 11 9 9 8 8 8
13 15 13 9 5 3 5 12 7 8 3 4 8 13 17 16 14 16 16 17 17 17 17 18 18 18 18 18 18 16 17 17 16 15 14 13 11 13 12 10 9 8 8 7
13 14 15 11 10 11 9 13 12 9 12 8 11 11 14 14 15 15 15 16 17 18 17 17 17 16 18 18 18 17 16 18 18 16 13 12 11 11 10 9 7 1 1 8
Wind_Direction
185 225 224 231 231 291 273 264 269 272 273 279 265 271 269 280 232 245 273 310 323 324 321 319 302 286 273 262 250 238 225 210 187 180 189 182 184 190 175 150 152 141 134 157
195 238 247 258 229 224 235 256 267 279 253 248 287 278 291 255 229 240 318 334 338 329 331 333 324 301 271 262 249 234 221 199 177 193 186 169 177 187 163 154 152 151 144 148
233 219 91 196 207 221 232 248 268 280 297 247 283 260 215 184 193 224 338 345 344 351 338 337 339 348 302 309 202 150 163 175 172 196 159 118 92 98 88 128 127 150 141 137
244 247 220 222 230 219 247 231 254 259 265 290 274 303 201 186 202 233 346 8 11 2 348 359 16 29 42 53 106 123 149 171 183 192 183 160 137 151 121 118 105 106 136 133
193 188 192 223 227 197 258 155 215 257 264 294 208 248 117 183 228 231 354 25 29 11 352 11 23 48 57 55 64 88 108 117 183 184 196 162 108 92 110 101 111 114 113 123
257 149 206 224 126 193 136 151 192 234 260 247 171 253 182 187 199 147 158 75 44 22 6 10 35 50 55 55 58 60 72 76 104 119 121 122 148 143 141 137 136 130 136 131
209 217 179 167 144 148 185 195 237 221 204 299 121 235 283 163 155 148 140 106 69 34 17 360 30 50 54 58 60 64 63 64 68 83 105 123 139 140 133 131 120 125 117 135
210 205 195 182 210 195 194 215 220 257 223 138 186 235 139 158 153 169 171 132 98 64 30 16 3 35 53 59 61 71 70 67 74 81 83 96 108 115 110 103 108 108 113 115
210 216 146 197 162 185 161 210 0 267 180 260 198 220 190 183 189 197 188 191 147 108 62 23 9 14 29 41 59 73 70 67 67 81 90 94 103 105 108 105 118 119 105 96
177 199 184 133 159 91 238 137 173 200 231 242 189 245 210 192 202 194 191 191 170 139 106 59 29 12 33 40 40 51 64 67 68 74 77 96 103 108 109 108 114 108 111 112
180 235 139 159 214 183 161 194 211 282 253 290 283 156 43 177 187 188 186 180 181 165 148 128 106 53 48 63 58 56 58 65 63 70 74 76 94 111 112 122 123 119 115 113
201 214 196 198 89 283 226 218 206 227 190 242 310 240 168 150 167 177 172 173 176 170 143 127 117 107 85 76 80 80 73 70 71 80 92 80 69 71 77 82 101 121 124 122
170 206 180 181 189 188 217 203 214 226 247 214 238 122 163 157 166 174 171 175 176 165 154 141 134 132 118 112 103 102 95 88 83 84 86 90 93 81 77 86 90 105 110 107
181 189 214 214 196 154 200 201 200 205 220 210 231 148 179 186 182 176 178 176 177 175 158 153 148 149 133 122 115 107 103 107 110 101 91 82 84 91 95 89 90 105 104 107
197 223 211 218 160 182 207 193 194 209 217 216 240 218 184 190 191 187 178 174 177 180 171 167 161 162 146 136 122 115 106 109 111 108 101 87 78 79 90 93 99 103 95 95
225 222 199 213 184 198 207 198 200 217 223 236 250 262 237 192 180 178 182 177 182 184 184 176 170 169 164 156 145 133 131 129 125 107 102 107 115 133 130 120 114 107 111 110
248 207 180 217 192 175 249 210 197 205 220 223 225 234 173 176 181 184 182 184 186 184 183 184 179 178 168 159 150 152 145 138 132 130 131 135 135 133 128 119 115 116 110 105
254 222 229 167 148 216 229 145 200 206 214 212 237 222 192 191 192 190 187 183 186 186 182 183 178 178 167 156 156 143 147 144 143 141 143 142 136 127 124 122 119 113 106 106
231 227 212 194 215 276 164 168 171 186 240 220 225 214 204 159 149 195 190 190 186 185 183 180 177 169 162 164 156 154 154 154 154 151 148 146 144 138 134 127 120 118 120 121
216 247 227 177 215 222 203 175 160 168 259 210 207 207 188 163 202 194 183 188 185 184 180 177 176 167 167 167 166 167 166 166 165 158 150 147 145 140 139 138 139 139 140 138
189 209 212 213 231 223 174 149 155 191 222 187 194 192 178 192 203 144 168 177 179 178 177 173 175 177 178 168 171 178 174 178 165 159 154 155 156 157 153 151 151 154 148 148
183 181 203 221 217 240 139 135 195 204 100 148 177 179 185 180 136 136 164 166 169 173 173 172 174 179 175 174 177 181 182 172 162 162 163 165 163 158 159 158 157 161 162 161
219 197 199 205 206 70 176 180 194 285 194 175 175 181 180 164 161 147 160 164 170 170 170 173 175 173 175 179 185 184 181 170 168 169 169 167 163 162 165 166 167 168 175 174
224 226 227 175 207 207 202 219 212 197 236 163 175 175 176 174 156 151 157 162 166 166 168 169 171 175 178 181 188 189 174 171 172 174 172 170 172 170 174 179 179 179 184 184
197 188 213 233 238 226 236 225 208 199 201 156 152 173 181 166 159 152 158 162 165 163 166 173 178 181 180 179 186 185 175 176 177 178 176 176 181 185 181 183 184 190 193 190
198 203 202 216 209 206 215 201 199 187 198 191 167 170 188 176 159 157 158 164 163 167 168 179 183 180 180 181 183 183 178 182 181 182 181 184 182 182 181 179 168 198 185 182